When you browse on this site, cookies collect data to enhance your experience and personalize the content and advertising you see.
Visit our Privacy Policy to learn more. By continuing to use the site, you agree to this use of cookies and data.
  • In Deutschland
  • Länderverzeichnis
  • Für 7 Tage
  • Wassertemperatur
  • Wetterkarte
  • Widgets
  • user-avatar
    Anmelden

    Stündliche Wetter Oran

    Heute, 27 Mai, Mittwoch

    Zeit Temperatur Niederschläge Wind Luftdruck Luftfeuchtigkeit
    00:00 +21°C° 0 mm 4 m/S 754 mmHg 78%
    01:00 +21°C° 0.1 mm 4 m/S 754 mmHg 80%
    02:00 +20°C° 0.1 mm 4 m/S 754 mmHg 81%
    03:00 +20°C° 0.1 mm 4 m/S 754 mmHg 83%
    04:00 +20°C° 0.5 mm 5 m/S 754 mmHg 83%
    05:00 +20°C° 0.5 mm 5 m/S 754 mmHg 84%
    06:00 +20°C° 0 mm 5 m/S 754 mmHg 83%
    07:00 +21°C° 0.2 mm 5 m/S 754 mmHg 78%
    08:00 +22°C° 0.2 mm 5 m/S 755 mmHg 73%
    09:00 +23°C° 0.2 mm 5 m/S 755 mmHg 68%
    10:00 +24°C° 0.2 mm 6 m/S 755 mmHg 64%
    11:00 +26°C° 0.2 mm 7 m/S 754 mmHg 61%
    12:00 +27°C° 0.2 mm 8 m/S 754 mmHg 57%
    13:00 +27°C° 0.1 mm 8 m/S 754 mmHg 57%
    14:00 +27°C° 0.1 mm 8 m/S 754 mmHg 56%
    15:00 +28°C° 0.1 mm 7 m/S 754 mmHg 55%
    16:00 +27°C° 0 mm 7 m/S 754 mmHg 58%
    17:00 +26°C° 0 mm 7 m/S 754 mmHg 61%
    18:00 +24°C° 0 mm 7 m/S 754 mmHg 64%
    19:00 +23°C° 0 mm 6 m/S 754 mmHg 67%
    20:00 +22°C° 0 mm 4 m/S 755 mmHg 70%
    21:00 +22°C° 0 mm 3 m/S 756 mmHg 73%
    22:00 +21°C° 0 mm 3 m/S 755 mmHg 76%
    23:00 +21°C° 0 mm 4 m/S 755 mmHg 78%

    Morgen, 28 Mai, Donnerstag

    Zeit Temperatur Niederschläge Wind Luftdruck Luftfeuchtigkeit
    00:00 +21°C° 0 mm 4 m/S 755 mmHg 81%
    01:00 +21°C° 0 mm 4 m/S 754 mmHg 83%
    02:00 +20°C° 0 mm 4 m/S 754 mmHg 84%
    03:00 +20°C° 0 mm 3 m/S 754 mmHg 86%
    04:00 +20°C° 0 mm 3 m/S 754 mmHg 86%
    05:00 +20°C° 0 mm 3 m/S 754 mmHg 86%
    06:00 +20°C° 0 mm 3 m/S 753 mmHg 86%
    07:00 +22°C° 0 mm 3 m/S 754 mmHg 78%
    08:00 +24°C° 0 mm 3 m/S 754 mmHg 71%
    09:00 +26°C° 0 mm 3 m/S 754 mmHg 63%
    10:00 +27°C° 0 mm 4 m/S 754 mmHg 59%
    11:00 +28°C° 0 mm 5 m/S 753 mmHg 55%
    12:00 +30°C° 0 mm 6 m/S 753 mmHg 50%
    13:00 +29°C° 0.6 mm 6 m/S 753 mmHg 53%
    14:00 +28°C° 0.6 mm 7 m/S 752 mmHg 56%
    15:00 +27°C° 0.6 mm 7 m/S 752 mmHg 59%
    16:00 +27°C° 0.9 mm 6 m/S 752 mmHg 61%
    17:00 +26°C° 0.9 mm 6 m/S 752 mmHg 63%
    18:00 +26°C° 0.9 mm 5 m/S 752 mmHg 65%
    19:00 +25°C° 0.8 mm 5 m/S 752 mmHg 70%
    20:00 +23°C° 0.8 mm 4 m/S 753 mmHg 74%
    21:00 +22°C° 0.8 mm 3 m/S 753 mmHg 79%
    22:00 +22°C° 0.2 mm 3 m/S 753 mmHg 81%
    23:00 +21°C° 0.2 mm 3 m/S 753 mmHg 83%

    übermorgen, 29 Mai, Freitag

    Zeit Temperatur Niederschläge Wind Luftdruck Luftfeuchtigkeit
    00:00 +21°C° 0.2 mm 3 m/S 752 mmHg 85%
    01:00 +21°C° 0.2 mm 3 m/S 752 mmHg 86%
    02:00 +21°C° 0.2 mm 3 m/S 752 mmHg 87%
    03:00 +20°C° 0.2 mm 3 m/S 751 mmHg 88%
    04:00 +20°C° 0 mm 3 m/S 751 mmHg 88%
    05:00 +20°C° 0 mm 4 m/S 751 mmHg 87%
    06:00 +20°C° 0 mm 4 m/S 751 mmHg 87%
    07:00 +22°C° 0 mm 4 m/S 751 mmHg 81%
    08:00 +23°C° 0 mm 4 m/S 751 mmHg 75%
    09:00 +25°C° 0 mm 4 m/S 751 mmHg 68%
    10:00 +26°C° 0 mm 4 m/S 751 mmHg 65%
    11:00 +27°C° 0 mm 5 m/S 750 mmHg 62%
    12:00 +28°C° 0 mm 5 m/S 750 mmHg 59%
    13:00 +28°C° 0 mm 5 m/S 750 mmHg 59%
    14:00 +28°C° 0 mm 6 m/S 749 mmHg 59%
    15:00 +28°C° 0 mm 6 m/S 749 mmHg 60%
    16:00 +27°C° 0 mm 6 m/S 748 mmHg 63%
    17:00 +26°C° 0 mm 5 m/S 748 mmHg 65%
    18:00 +25°C° 0 mm 5 m/S 748 mmHg 68%
    19:00 +23°C° 0 mm 4 m/S 748 mmHg 71%
    20:00 +23°C° 0 mm 4 m/S 749 mmHg 73%
    21:00 +22°C° 0 mm 3 m/S 749 mmHg 75%
    22:00 +23°C° 0 mm 2 m/S 749 mmHg 77%
    23:00 +21°C° 0 mm 2 m/S 749 mmHg 78%

    30 Mai, Samstag

    Zeit Temperatur Niederschläge Wind Luftdruck Luftfeuchtigkeit
    00:00 +21°C° 0 mm 2 m/S 749 mmHg 80%
    01:00 +21°C° 0 mm 2 m/S 749 mmHg 82%
    02:00 +20°C° 0 mm 3 m/S 749 mmHg 84%
    03:00 +20°C° 0 mm 3 m/S 748 mmHg 87%
    04:00 +20°C° 0 mm 3 m/S 749 mmHg 86%
    05:00 +20°C° 0 mm 3 m/S 749 mmHg 85%
    06:00 +20°C° 0 mm 4 m/S 749 mmHg 84%
    07:00 +21°C° 0 mm 4 m/S 749 mmHg 77%
    08:00 +22°C° 0 mm 4 m/S 749 mmHg 71%
    09:00 +23°C° 0 mm 4 m/S 750 mmHg 65%
    10:00 +26°C° 0 mm 4 m/S 750 mmHg 59%
    11:00 +27°C° 0 mm 5 m/S 749 mmHg 53%
    12:00 +28°C° 0 mm 5 m/S 749 mmHg 47%
    13:00 +29°C° 0 mm 6 m/S 749 mmHg 47%
    14:00 +29°C° 0 mm 6 m/S 749 mmHg 47%
    15:00 +29°C° 0 mm 7 m/S 748 mmHg 46%
    16:00 +28°C° 0 mm 7 m/S 748 mmHg 47%
    17:00 +27°C° 0 mm 7 m/S 748 mmHg 48%
    18:00 +26°C° 0 mm 7 m/S 748 mmHg 49%
    19:00 +26°C° 0 mm 6 m/S 748 mmHg 52%
    20:00 +24°C° 0 mm 6 m/S 748 mmHg 54%
    21:00 +23°C° 0 mm 5 m/S 749 mmHg 57%
    22:00 +23°C° 0 mm 4 m/S 749 mmHg 59%
    23:00 +23°C° 0 mm 4 m/S 749 mmHg 61%

    31 Mai, Sonntag

    Zeit Temperatur Niederschläge Wind Luftdruck Luftfeuchtigkeit
    00:00 +22°C° 0 mm 3 m/S 748 mmHg 63%
    01:00 +22°C° 0 mm 3 m/S 748 mmHg 61%
    02:00 +23°C° 0 mm 2 m/S 748 mmHg 60%
    03:00 +23°C° 0 mm 2 m/S 748 mmHg 59%
    04:00 +24°C° 0 mm 2 m/S 748 mmHg 58%
    05:00 +24°C° 0 mm 3 m/S 748 mmHg 56%
    06:00 +24°C° 0 mm 3 m/S 748 mmHg 55%
    07:00 +25°C° 0 mm 3 m/S 748 mmHg 50%
    08:00 +27°C° 0 mm 3 m/S 748 mmHg 45%
    09:00 +28°C° 0 mm 4 m/S 748 mmHg 40%
    10:00 +29°C° 0 mm 4 m/S 748 mmHg 39%
    11:00 +30°C° 0 mm 4 m/S 748 mmHg 38%
    12:00 +30°C° 0 mm 4 m/S 748 mmHg 36%
    13:00 +32°C° 0 mm 4 m/S 748 mmHg 35%
    14:00 +33°C° 0 mm 5 m/S 748 mmHg 33%
    15:00 +33°C° 0 mm 5 m/S 748 mmHg 32%
    16:00 +33°C° 0 mm 5 m/S 748 mmHg 32%
    17:00 +32°C° 0 mm 5 m/S 747 mmHg 33%
    18:00 +30°C° 0 mm 5 m/S 747 mmHg 34%
    19:00 +29°C° 0 mm 4 m/S 748 mmHg 37%
    20:00 +28°C° 0 mm 3 m/S 749 mmHg 40%
    21:00 +27°C° 0 mm 3 m/S 749 mmHg 43%
    22:00 +27°C° 0 mm 3 m/S 749 mmHg 45%
    23:00 +27°C° 0 mm 3 m/S 749 mmHg 48%

    1 Juni, Montag

    Zeit Temperatur Niederschläge Wind Luftdruck Luftfeuchtigkeit
    00:00 +26°C° 0 mm 3 m/S 749 mmHg 50%
    01:00 +25°C° 0 mm 3 m/S 748 mmHg 54%
    02:00 +25°C° 0 mm 2 m/S 748 mmHg 58%
    03:00 +24°C° 0 mm 2 m/S 748 mmHg 63%
    04:00 +24°C° 0 mm 2 m/S 748 mmHg 64%
    05:00 +24°C° 0 mm 2 m/S 748 mmHg 66%
    06:00 +23°C° 0 mm 2 m/S 749 mmHg 68%
    07:00 +25°C° 0 mm 2 m/S 749 mmHg 62%
    08:00 +26°C° 0 mm 2 m/S 749 mmHg 57%
    09:00 +27°C° 0 mm 1 m/S 749 mmHg 52%
    10:00 +28°C° 0 mm 2 m/S 749 mmHg 48%
    11:00 +30°C° 0 mm 2 m/S 749 mmHg 44%
    12:00 +31°C° 0 mm 3 m/S 749 mmHg 41%
    13:00 +31°C° 0 mm 3 m/S 748 mmHg 41%
    14:00 +31°C° 0 mm 3 m/S 748 mmHg 41%
    15:00 +31°C° 0 mm 3 m/S 747 mmHg 41%
    16:00 +30°C° 0 mm 3 m/S 747 mmHg 45%
    17:00 +28°C° 0 mm 3 m/S 747 mmHg 48%
    18:00 +27°C° 0 mm 2 m/S 747 mmHg 52%
    19:00 +26°C° 0 mm 2 m/S 747 mmHg 57%
    20:00 +25°C° 0 mm 2 m/S 747 mmHg 63%
    21:00 +23°C° 0 mm 2 m/S 747 mmHg 69%
    22:00 +22°C° 0 mm 3 m/S 747 mmHg 71%
    23:00 +22°C° 0 mm 4 m/S 747 mmHg 73%
    Mehr zeigen